QPF
0.02 0.06 0.10 0.13 0.19 0.29 0.42 0.36 0.17 0.08 0.07 0.08 0.10 0.10 0.11 0.10 0.12 0.11 0.13 0.11 0.10 0.08 0.08 0.08 0.08 0.06 0.06 0.05 0.03 0.02 0.01 0.01 0.01 0.01 0.02 0.02 0.02 0.02 0.02 0.02 0.02 0.02 0.02
0.03 0.06 0.12 0.15 0.17 0.21 0.30 0.29 0.17 0.09 0.07 0.10 0.09 0.08 0.15 0.12 0.10 0.16 0.21 0.13 0.09 0.09 0.08 0.07 0.07 0.06 0.05 0.04 0.03 0.03 0.02 0.02 0.02 0.02 0.02 0.02 0.02 0.02 0.02 0.02 0.02 0.02 0.02
0.04 0.07 0.10 0.12 0.11 0.13 0.19 0.17 0.11 0.09 0.08 0.08 0.07 0.08 0.15 0.14 0.09 0.17 0.26 0.17 0.12 0.11 0.10 0.07 0.06 0.06 0.04 0.03 0.03 0.03 0.03 0.03 0.03 0.02 0.02 0.02 0.02 0.02 0.01 0.02 0.02 0.01 0.01
0.04 0.05 0.06 0.08 0.08 0.09 0.12 0.13 0.11 0.10 0.09 0.08 0.07 0.06 0.08 0.10 0.07 0.13 0.21 0.18 0.15 0.13 0.10 0.07 0.06 0.05 0.04 0.03 0.03 0.05 0.05 0.04 0.03 0.03 0.03 0.03 0.03 0.02 0.02 0.02 0.02 0.02 0.02
0.03 0.03 0.04 0.05 0.06 0.07 0.07 0.09 0.10 0.10 0.09 0.07 0.08 0.07 0.06 0.07 0.05 0.07 0.10 0.11 0.10 0.10 0.09 0.07 0.05 0.05 0.04 0.04 0.04 0.05 0.05 0.04 0.03 0.03 0.04 0.03 0.04 0.03 0.03 0.03 0.03 0.03 0.03
0.02 0.02 0.03 0.03 0.04 0.04 0.04 0.05 0.07 0.10 0.09 0.07 0.09 0.08 0.07 0.08 0.05 0.05 0.04 0.06 0.06 0.06 0.07 0.06 0.04 0.04 0.04 0.04 0.04 0.05 0.06 0.05 0.05 0.05 0.04 0.04 0.04 0.04 0.03 0.04 0.04 0.04 0.03
0.02 0.02 0.02 0.03 0.03 0.04 0.04 0.04 0.05 0.07 0.07 0.06 0.09 0.09 0.11 0.11 0.08 0.06 0.04 0.03 0.04 0.04 0.04 0.05 0.06 0.05 0.05 0.05 0.04 0.05 0.07 0.07 0.06 0.06 0.05 0.05 0.04 0.03 0.03 0.04 0.04 0.04 0.04
0.02 0.03 0.03 0.03 0.03 0.03 0.05 0.05 0.05 0.07 0.07 0.05 0.07 0.08 0.12 0.14 0.12 0.09 0.07 0.05 0.03 0.03 0.03 0.03 0.03 0.04 0.05 0.05 0.04 0.04 0.07 0.07 0.07 0.07 0.06 0.06 0.05 0.04 0.04 0.05 0.06 0.05 0.04
0.04 0.04 0.04 0.04 0.04 0.04 0.06 0.07 0.05 0.06 0.06 0.04 0.05 0.05 0.07 0.11 0.14 0.14 0.09 0.10 0.09 0.06 0.04 0.03 0.03 0.03 0.03 0.03 0.04 0.04 0.04 0.04 0.04 0.04 0.05 0.05 0.05 0.05 0.04 0.06 0.08 0.07 0.06
0.05 0.06 0.05 0.05 0.05 0.04 0.05 0.05 0.05 0.06 0.07 0.04 0.05 0.05 0.04 0.07 0.11 0.13 0.10 0.13 0.16 0.10 0.06 0.05 0.04 0.04 0.04 0.03 0.03 0.04 0.03 0.02 0.02 0.02 0.03 0.03 0.04 0.04 0.04 0.04 0.06 0.07 0.07
0.05 0.05 0.06 0.05 0.04 0.03 0.04 0.04 0.03 0.05 0.07 0.05 0.04 0.05 0.05 0.05 0.06 0.07 0.07 0.09 0.15 0.11 0.08 0.08 0.06 0.05 0.05 0.04 0.03 0.03 0.03 0.02 0.02 0.02 0.02 0.02 0.02 0.03 0.03 0.03 0.04 0.06 0.06
0.06 0.06 0.07 0.08 0.06 0.04 0.03 0.03 0.02 0.03 0.05 0.06 0.06 0.06 0.06 0.05 0.06 0.06 0.07 0.06 0.07 0.07 0.06 0.06 0.06 0.05 0.06 0.06 0.05 0.03 0.02 0.02 0.02 0.02 0.02 0.02 0.02 0.03 0.03 0.03 0.03 0.03 0.04
0.03 0.05 0.09 0.07 0.05 0.04 0.04 0.03 0.03 0.03 0.03 0.05 0.08 0.08 0.08 0.07 0.07 0.07 0.07 0.06 0.06 0.06 0.07 0.05 0.05 0.07 0.06 0.06 0.05 0.04 0.02 0.01 0.01 0.01 0.01 0.02 0.03 0.03 0.03 0.03 0.03 0.03 0.04
0.02 0.04 0.07 0.04 0.03 0.04 0.05 0.05 0.05 0.03 0.03 0.04 0.06 0.08 0.08 0.08 0.09 0.08 0.08 0.08 0.06 0.07 0.06 0.05 0.05 0.05 0.05 0.04 0.05 0.05 0.03 0.02 0.01 0.01 0.01 0.01 0.02 0.02 0.01 0.02 0.02 0.03 0.04
0.04 0.04 0.04 0.04 0.04 0.05 0.06 0.07 0.05 0.04 0.04 0.04 0.05 0.06 0.05 0.06 0.08 0.08 0.07 0.09 0.08 0.06 0.06 0.05 0.06 0.06 0.04 0.05 0.06 0.06 0.05 0.04 0.01 0.01 0.01 0.01 0.01 0.01 0.01 0.01 0.01 0.01 0.01
0.05 0.05 0.05 0.05 0.05 0.06 0.07 0.07 0.06 0.05 0.06 0.05 0.04 0.05 0.05 0.05 0.05 0.06 0.06 0.08 0.10 0.07 0.07 0.06 0.06 0.07 0.06 0.05 0.07 0.08 0.06 0.06 0.04 0.02 0.01 0.01 0.01 0.01 0.01 0.01 0.01 0.01 0.01
0.04 0.04 0.05 0.05 0.05 0.05 0.06 0.08 0.08 0.08 0.07 0.07 0.06 0.04 0.05 0.06 0.05 0.04 0.04 0.06 0.08 0.07 0.05 0.04 0.05 0.06 0.08 0.08 0.09 0.09 0.07 0.06 0.05 0.04 0.03 0.02 0.02 0.02 0.02 0.01 0.01 0.01 0.01
0.03 0.03 0.04 0.04 0.03 0.03 0.04 0.06 0.08 0.09 0.09 0.09 0.08 0.07 0.05 0.05 0.04 0.04 0.05 0.04 0.06 0.06 0.05 0.04 0.04 0.04 0.05 0.06 0.06 0.06 0.05 0.05 0.04 0.04 0.04 0.03 0.03 0.02 0.02 0.01 0.01 0.01 0.02
0.01 0.02 0.02 0.03 0.03 0.02 0.03 0.05 0.06 0.05 0.07 0.09 0.09 0.08 0.06 0.05 0.05 0.04 0.05 0.06 0.06 0.06 0.06 0.05 0.03 0.04 0.04 0.04 0.05 0.05 0.05 0.05 0.05 0.05 0.04 0.03 0.03 0.02 0.02 0.02 0.03 0.03 0.03
0.01 0.01 0.02 0.02 0.01 0.01 0.01 0.02 0.03 0.04 0.06 0.06 0.07 0.08 0.07 0.06 0.05 0.05 0.04 0.04 0.06 0.07 0.07 0.05 0.04 0.05 0.05 0.05 0.05 0.05 0.06 0.05 0.05 0.05 0.03 0.02 0.02 0.02 0.02 0.02 0.03 0.02 0.01
0.01 0.01 0.02 0.02 0.01 0.02 0.01 0.01 0.02 0.03 0.04 0.04 0.04 0.04 0.05 0.06 0.06 0.06 0.04 0.04 0.05 0.05 0.06 0.05 0.06 0.06 0.07 0.06 0.04 0.04 0.06 0.07 0.06 0.07 0.05 0.03 0.02 0.02 0.02 0.02 0.02 0.01 0.01
0.01 0.01 0.02 0.01 0.01 0.01 0.02 0.02 0.02 0.03 0.02 0.02 0.03 0.04 0.04 0.05 0.06 0.06 0.06 0.04 0.04 0.04 0.04 0.04 0.05 0.04 0.05 0.04 0.02 0.03 0.05 0.07 0.07 0.05 0.04 0.04 0.04 0.04 0.03 0.02 0.02 0.02 0.01
0.01 0.02 0.02 0.01 0.01 0.01 0.01 0.01 0.01 0.02 0.02 0.02 0.03 0.04 0.05 0.06 0.07 0.07 0.08 0.08 0.06 0.04 0.04 0.04 0.03 0.03 0.03 0.03 0.03 0.04 0.05 0.05 0.04 0.02 0.03 0.05 0.05 0.04 0.04 0.03 0.03 0.02 0.01
0.03 0.03 0.02 0.01 0.01 0.00 0.00 0.00 0.00 0.01 0.02 0.02 0.02 0.04 0.05 0.06 0.07 0.08 0.08 0.07 0.06 0.05 0.05 0.04 0.03 0.02 0.02 0.03 0.03 0.03 0.04 0.04 0.02 0.01 0.01 0.02 0.02 0.03 0.02 0.02 0.02 0.02 0.02
0.04 0.03 0.03 0.02 0.01 0.01 0.00 0.00 0.00 0.01 0.02 0.02 0.02 0.02 0.03 0.03 0.05 0.05 0.04 0.03 0.03 0.03 0.04 0.03 0.02 0.01 0.02 0.03 0.03 0.03 0.04 0.03 0.01 0.01 0.01 0.01 0.00 0.01 0.01 0.01 0.01 0.02 0.02
0.04 0.04 0.04 0.03 0.02 0.02 0.01 0.01 0.00 0.01 0.01 0.01 0.01 0.01 0.02 0.02 0.03 0.04 0.03 0.02 0.02 0.02 0.03 0.02 0.02 0.02 0.02 0.02 0.02 0.02 0.03 0.02 0.01 0.01 0.00 0.01 0.01 0.01 0.01 0.01 0.01 0.01 0.01
MSLP
1007.39 1007.26 1007.17 1007.19 1007.37 1007.72 1008.23 1008.88 1009.59 1010.32 1011.01 1011.63 1012.17 1012.63 1013.03 1013.41 1013.78 1014.14 1014.52 1014.90 1015.28 1015.66 1016.04 1016.43 1016.84 1017.27 1017.72 1018.17 1018.60 1018.99 1019.34 1019.63 1019.86 1020.05 1020.20 1020.34 1020.46 1020.57 1020.66 1020.72 1020.73 1020.70 1020.62
1007.51 1007.35 1007.26 1007.30 1007.50 1007.89 1008.43 1009.10 1009.85 1010.60 1011.31 1011.94 1012.49 1012.96 1013.36 1013.72 1014.07 1014.41 1014.76 1015.12 1015.48 1015.87 1016.27 1016.69 1017.14 1017.60 1018.07 1018.54 1018.98 1019.38 1019.72 1020.00 1020.22 1020.40 1020.54 1020.67 1020.78 1020.88 1020.95 1020.98 1020.98 1020.93 1020.86
1007.65 1007.48 1007.41 1007.48 1007.72 1008.13 1008.70 1009.39 1010.13 1010.88 1011.59 1012.23 1012.78 1013.26 1013.67 1014.04 1014.38 1014.71 1015.04 1015.39 1015.74 1016.13 1016.53 1016.96 1017.42 1017.90 1018.38 1018.85 1019.29 1019.68 1020.00 1020.27 1020.48 1020.64 1020.78 1020.89 1020.99 1021.08 1021.14 1021.17 1021.16 1021.12 1021.05
1007.77 1007.63 1007.59 1007.71 1007.99 1008.43 1009.02 1009.69 1010.42 1011.14 1011.83 1012.46 1013.01 1013.50 1013.93 1014.33 1014.69 1015.03 1015.37 1015.71 1016.06 1016.43 1016.82 1017.25 1017.70 1018.17 1018.65 1019.10 1019.53 1019.90 1020.21 1020.46 1020.65 1020.80 1020.92 1021.03 1021.12 1021.20 1021.26 1021.28 1021.28 1021.25 1021.21
1007.89 1007.77 1007.79 1007.96 1008.28 1008.75 1009.33 1009.98 1010.66 1011.34 1011.99 1012.59 1013.15 1013.66 1014.13 1014.57 1014.97 1015.36 1015.72 1016.07 1016.42 1016.78 1017.15 1017.56 1017.98 1018.43 1018.89 1019.33 1019.73 1020.08 1020.37 1020.60 1020.78 1020.92 1021.04 1021.14 1021.22 1021.29 1021.34 1021.37 1021.38 1021.36 1021.33
1007.99 1007.92 1007.99 1008.20 1008.56 1009.04 1009.59 1010.20 1010.82 1011.44 1012.04 1012.62 1013.17 1013.71 1014.24 1014.74 1015.22 1015.67 1016.08 1016.46 1016.82 1017.16 1017.52 1017.90 1018.30 1018.71 1019.14 1019.55 1019.93 1020.26 1020.54 1020.76 1020.93 1021.06 1021.17 1021.26 1021.34 1021.41 1021.45 1021.47 1021.47 1021.46 1021.43
1008.13 1008.09 1008.20 1008.45 1008.82 1009.29 1009.80 1010.34 1010.89 1011.43 1011.98 1012.53 1013.09 1013.67 1014.26 1014.85 1015.41 1015.94 1016.42 1016.84 1017.22 1017.57 1017.91 1018.26 1018.63 1019.01 1019.41 1019.79 1020.15 1020.46 1020.73 1020.95 1021.12 1021.25 1021.36 1021.45 1021.52 1021.58 1021.61 1021.61 1021.59 1021.56 1021.52
1008.33 1008.31 1008.44 1008.70 1009.06 1009.49 1009.95 1010.41 1010.87 1011.34 1011.83 1012.35 1012.93 1013.55 1014.21 1014.89 1015.55 1016.16 1016.71 1017.18 1017.60 1017.96 1018.30 1018.63 1018.97 1019.33 1019.69 1020.05 1020.40 1020.70 1020.97 1021.18 1021.36 1021.50 1021.61 1021.70 1021.77 1021.82 1021.83 1021.81 1021.75 1021.68 1021.61
1008.62 1008.60 1008.73 1008.97 1009.30 1009.67 1010.05 1010.42 1010.80 1011.19 1011.62 1012.13 1012.71 1013.38 1014.10 1014.86 1015.61 1016.30 1016.93 1017.46 1017.91 1018.29 1018.63 1018.95 1019.28 1019.62 1019.97 1020.31 1020.64 1020.95 1021.21 1021.43 1021.62 1021.77 1021.89 1021.99 1022.06 1022.09 1022.08 1022.03 1021.95 1021.84 1021.72
1009.00 1008.97 1009.07 1009.27 1009.54 1009.83 1010.13 1010.41 1010.70 1011.02 1011.41 1011.89 1012.48 1013.18 1013.95 1014.77 1015.59 1016.35 1017.03 1017.62 1018.10 1018.51 1018.86 1019.19 1019.52 1019.85 1020.19 1020.53 1020.85 1021.15 1021.41 1021.64 1021.83 1022.00 1022.13 1022.24 1022.32 1022.35 1022.34 1022.27 1022.16 1022.01 1021.86
1009.47 1009.41 1009.46 1009.61 1009.80 1010.00 1010.21 1010.41 1010.62 1010.88 1011.22 1011.67 1012.26 1012.96 1013.77 1014.62 1015.48 1016.28 1017.01 1017.62 1018.14 1018.58 1018.95 1019.30 1019.63 1019.97 1020.31 1020.65 1020.97 1021.26 1021.52 1021.75 1021.95 1022.13 1022.28 1022.40 1022.50 1022.54 1022.54 1022.48 1022.36 1022.19 1022.01
1009.97 1009.88 1009.88 1009.95 1010.06 1010.18 1010.30 1010.42 1010.56 1010.76 1011.06 1011.49 1012.05 1012.75 1013.55 1014.40 1015.27 1016.09 1016.83 1017.47 1018.02 1018.48 1018.89 1019.26 1019.62 1019.97 1020.32 1020.66 1020.98 1021.26 1021.52 1021.74 1021.94 1022.12 1022.29 1022.43 1022.55 1022.63 1022.66 1022.62 1022.51 1022.36 1022.18
1010.46 1010.33 1010.28 1010.28 1010.31 1010.36 1010.40 1010.46 1010.54 1010.69 1010.94 1011.33 1011.86 1012.52 1013.29 1014.12 1014.97 1015.77 1016.51 1017.17 1017.74 1018.23 1018.67 1019.08 1019.47 1019.85 1020.22 1020.56 1020.88 1021.16 1021.40 1021.61 1021.81 1021.99 1022.16 1022.33 1022.48 1022.60 1022.66 1022.67 1022.61 1022.49 1022.32
1010.88 1010.72 1010.63 1010.57 1010.55 1010.53 1010.51 1010.51 1010.54 1010.64 1010.85 1011.19 1011.67 1012.28 1013.00 1013.78 1014.58 1015.36 1016.08 1016.74 1017.33 1017.85 1018.34 1018.79 1019.23 1019.64 1020.03 1020.39 1020.71 1020.98 1021.21 1021.41 1021.59 1021.76 1021.94 1022.12 1022.30 1022.46 1022.57 1022.63 1022.62 1022.55 1022.43
1011.20 1011.03 1010.91 1010.82 1010.75 1010.68 1010.62 1010.58 1010.57 1010.63 1010.79 1011.08 1011.50 1012.04 1012.69 1013.40 1014.15 1014.88 1015.58 1016.24 1016.84 1017.41 1017.94 1018.44 1018.93 1019.39 1019.81 1020.19 1020.51 1020.78 1021.00 1021.18 1021.35 1021.51 1021.68 1021.87 1022.06 1022.24 1022.39 1022.49 1022.54 1022.52 1022.45
1011.43 1011.26 1011.13 1011.02 1010.93 1010.83 1010.74 1010.66 1010.62 1010.64 1010.75 1010.98 1011.33 1011.81 1012.38 1013.02 1013.70 1014.40 1015.07 1015.72 1016.34 1016.94 1017.52 1018.08 1018.61 1019.12 1019.58 1019.99 1020.33 1020.61 1020.82 1020.99 1021.14 1021.29 1021.44 1021.61 1021.80 1021.98 1022.15 1022.28 1022.36 1022.38 1022.36
1011.56 1011.42 1011.30 1011.20 1011.10 1010.99 1010.89 1010.78 1010.71 1010.69 1010.75 1010.92 1011.21 1011.60 1012.10 1012.68 1013.30 1013.94 1014.60 1015.24 1015.87 1016.50 1017.11 1017.72 1018.30 1018.86 1019.36 1019.81 1020.17 1020.47 1020.69 1020.86 1021.00 1021.12 1021.25 1021.39 1021.55 1021.71 1021.85 1021.98 1022.06 1022.10 1022.11
1011.65 1011.54 1011.45 1011.37 1011.29 1011.18 1011.07 1010.94 1010.84 1010.78 1010.79 1010.90 1011.13 1011.46 1011.89 1012.40 1012.97 1013.57 1014.19 1014.82 1015.46 1016.10 1016.74 1017.37 1017.99 1018.58 1019.13 1019.61 1020.01 1020.34 1020.58 1020.77 1020.90 1021.01 1021.10 1021.20 1021.30 1021.41 1021.50 1021.59 1021.64 1021.68 1021.69
1011.72 1011.66 1011.62 1011.57 1011.51 1011.41 1011.29 1011.15 1011.02 1010.92 1010.90 1010.95 1011.12 1011.39 1011.76 1012.21 1012.73 1013.29 1013.88 1014.48 1015.10 1015.74 1016.37 1017.02 1017.65 1018.26 1018.83 1019.35 1019.79 1020.15 1020.44 1020.64 1020.79 1020.89 1020.95 1021.00 1021.04 1021.07 1021.09 1021.10 1021.11 1021.11 1021.12
1011.81 1011.80 1011.80 1011.79 1011.75 1011.67 1011.55 1011.40 1011.25 1011.12 1011.05 1011.07 1011.18 1011.40 1011.72 1012.12 1012.59 1013.10 1013.65 1014.21 1014.79 1015.39 1015.99 1016.61 1017.23 1017.85 1018.43 1018.97 1019.45 1019.86 1020.18 1020.43 1020.59 1020.70 1020.74 1020.74 1020.71 1020.66 1020.60 1020.53 1020.47 1020.42 1020.40
1011.90 1011.94 1011.99 1012.01 1012.00 1011.93 1011.82 1011.66 1011.49 1011.34 1011.25 1011.23 1011.31 1011.49 1011.77 1012.12 1012.54 1013.00 1013.48 1013.99 1014.50 1015.04 1015.58 1016.15 1016.73 1017.31 1017.89 1018.44 1018.95 1019.39 1019.77 1020.06 1020.26 1020.38 1020.41 1020.38 1020.30 1020.18 1020.03 1019.88 1019.75 1019.65 1019.61
1011.98 1012.06 1012.14 1012.20 1012.20 1012.15 1012.04 1011.89 1011.72 1011.57 1011.46 1011.43 1011.49 1011.64 1011.88 1012.20 1012.56 1012.96 1013.38 1013.80 1014.23 1014.68 1015.14 1015.62 1016.13 1016.66 1017.21 1017.76 1018.28 1018.76 1019.18 1019.52 1019.76 1019.90 1019.95 1019.91 1019.79 1019.62 1019.41 1019.20 1019.01 1018.87 1018.81
1012.02 1012.12 1012.22 1012.29 1012.31 1012.28 1012.19 1012.05 1011.90 1011.76 1011.66 1011.64 1011.69 1011.83 1012.05 1012.33 1012.64 1012.97 1013.31 1013.65 1013.98 1014.32 1014.68 1015.06 1015.49 1015.95 1016.45 1016.97 1017.50 1018.00 1018.45 1018.84 1019.12 1019.30 1019.37 1019.34 1019.21 1019.02 1018.78 1018.53 1018.31 1018.15 1018.06
1011.98 1012.07 1012.17 1012.24 1012.28 1012.26 1012.19 1012.09 1011.97 1011.86 1011.80 1011.81 1011.88 1012.03 1012.23 1012.48 1012.75 1013.03 1013.29 1013.54 1013.77 1014.00 1014.26 1014.54 1014.87 1015.26 1015.70 1016.18 1016.69 1017.19 1017.66 1018.08 1018.40 1018.62 1018.73 1018.72 1018.61 1018.42 1018.19 1017.94 1017.71 1017.54 1017.45
1011.83 1011.89 1011.97 1012.03 1012.07 1012.07 1012.03 1011.97 1011.90 1011.86 1011.86 1011.91 1012.03 1012.20 1012.41 1012.64 1012.88 1013.11 1013.30 1013.47 1013.62 1013.76 1013.92 1014.11 1014.35 1014.66 1015.04 1015.47 1015.95 1016.43 1016.91 1017.34 1017.68 1017.94 1018.08 1018.11 1018.04 1017.89 1017.68 1017.45 1017.24 1017.08 1016.99
1011.57 1011.58 1011.62 1011.66 1011.69 1011.70 1011.70 1011.70 1011.70 1011.73 1011.81 1011.93 1012.10 1012.31 1012.54 1012.78 1013.01 1013.20 1013.35 1013.47 1013.55 1013.62 1013.71 1013.83 1014.00 1014.24 1014.56 1014.94 1015.36 1015.82 1016.27 1016.69 1017.04 1017.32 1017.49 1017.56 1017.54 1017.43 1017.27 1017.09 1016.91 1016.76 1016.68
Thickness
5750 5750 5749 5748 5748 5747 5748 5748 5746 5745 5744 5743 5742 5741 5739 5739 5738 5738 5738 5738 5737 5737 5736 5735 5734 5733 5732 5731 5730 5728 5727 5726 5724 5723 5722 5721 5720 5720 5718 5717 5715 5714 5713
5750 5748 5748 5747 5746 5746 5745 5745 5744 5743 5742 5742 5741 5740 5738 5737 5736 5735 5735 5735 5735 5734 5734 5732 5732 5731 5730 5729 5728 5727 5725 5724 5723 5722 5721 5720 5719 5718 5717 5716 5714 5713 5712
5748 5747 5745 5744 5744 5744 5744 5743 5742 5741 5740 5739 5738 5737 5736 5735 5734 5733 5734 5733 5732 5732 5731 5730 5729 5729 5728 5727 5726 5725 5724 5723 5721 5720 5719 5718 5717 5716 5716 5714 5713 5711 5711
5747 5745 5743 5742 5742 5742 5742 5740 5739 5738 5736 5735 5734 5734 5733 5732 5731 5731 5731 5731 5730 5729 5728 5727 5726 5726 5725 5725 5724 5723 5722 5721 5720 5719 5717 5716 5715 5714 5713 5713 5711 5711 5710
5745 5744 5742 5741 5741 5740 5738 5738 5735 5734 5732 5731 5730 5730 5730 5729 5729 5729 5728 5728 5728 5727 5726 5725 5724 5723 5723 5723 5722 5721 5721 5720 5718 5717 5716 5714 5713 5713 5712 5711 5710 5710 5709
5742 5741 5739 5738 5738 5736 5734 5734 5732 5731 5730 5728 5728 5726 5726 5726 5726 5727 5726 5726 5725 5724 5724 5722 5721 5721 5720 5720 5720 5719 5718 5717 5716 5715 5714 5713 5711 5711 5710 5710 5709 5709 5709
5738 5737 5736 5735 5734 5732 5731 5731 5729 5727 5726 5726 5722 5719 5720 5722 5723 5723 5724 5723 5722 5722 5721 5720 5719 5718 5718 5718 5718 5717 5716 5715 5714 5714 5712 5711 5710 5709 5708 5708 5708 5708 5708
5735 5735 5733 5732 5731 5729 5728 5727 5726 5723 5722 5723 5719 5713 5709 5710 5715 5719 5720 5720 5719 5719 5718 5717 5717 5716 5716 5715 5715 5715 5714 5713 5712 5712 5711 5709 5708 5708 5707 5707 5706 5707 5707
5731 5731 5731 5730 5728 5727 5724 5723 5723 5720 5717 5719 5719 5714 5707 5702 5706 5711 5715 5716 5716 5716 5715 5715 5714 5714 5713 5712 5712 5712 5711 5711 5710 5709 5708 5707 5706 5706 5705 5705 5705 5705 5706
5726 5727 5727 5726 5725 5724 5722 5722 5721 5720 5717 5714 5715 5716 5715 5712 5705 5703 5708 5711 5713 5713 5713 5713 5712 5712 5711 5711 5710 5711 5710 5709 5708 5707 5706 5705 5704 5704 5704 5704 5703 5703 5704
5722 5722 5722 5721 5720 5720 5720 5719 5719 5718 5716 5714 5712 5712 5711 5710 5709 5703 5700 5704 5707 5710 5711 5711 5710 5710 5710 5709 5709 5709 5708 5706 5705 5704 5703 5703 5702 5702 5702 5702 5702 5702 5701
5717 5718 5718 5717 5717 5717 5717 5716 5716 5715 5714 5713 5712 5711 5709 5706 5704 5702 5699 5699 5700 5704 5708 5709 5709 5709 5708 5707 5707 5707 5706 5705 5703 5702 5701 5700 5700 5700 5700 5700 5700 5699 5699
5710 5712 5713 5712 5712 5713 5713 5713 5713 5712 5712 5711 5710 5709 5708 5708 5707 5704 5700 5697 5697 5699 5703 5706 5707 5707 5706 5705 5705 5704 5703 5702 5701 5700 5699 5698 5698 5697 5697 5698 5697 5697 5697
5707 5708 5708 5708 5709 5709 5709 5709 5709 5709 5709 5709 5709 5708 5707 5706 5706 5704 5700 5696 5692 5692 5696 5700 5703 5704 5704 5703 5702 5701 5700 5700 5699 5698 5697 5696 5696 5695 5695 5695 5695 5694 5694
5704 5704 5704 5704 5704 5704 5704 5705 5704 5704 5705 5705 5705 5705 5704 5704 5703 5703 5701 5699 5693 5687 5687 5694 5697 5700 5701 5700 5699 5698 5697 5697 5696 5696 5695 5694 5693 5693 5692 5692 5692 5692 5691
5699 5699 5699 5699 5699 5699 5700 5700 5701 5701 5701 5700 5701 5701 5700 5700 5701 5700 5699 5698 5696 5691 5686 5690 5693 5696 5697 5696 5695 5694 5693 5693 5693 5693 5692 5692 5691 5690 5690 5690 5689 5689 5688
5695 5694 5694 5694 5695 5695 5695 5695 5696 5697 5696 5696 5696 5697 5696 5697 5696 5695 5695 5694 5693 5691 5685 5687 5689 5692 5692 5691 5691 5690 5689 5689 5689 5689 5689 5688 5688 5688 5687 5686 5686 5685 5685
5690 5690 5690 5690 5690 5691 5691 5691 5691 5692 5691 5691 5691 5692 5691 5692 5691 5691 5690 5690 5689 5688 5684 5682 5683 5685 5686 5686 5686 5685 5685 5685 5685 5685 5685 5685 5685 5684 5684 5683 5683 5682 5682
5685 5685 5684 5684 5685 5686 5686 5686 5686 5686 5686 5686 5687 5687 5687 5686 5686 5686 5685 5685 5684 5685 5682 5679 5678 5680 5680 5681 5680 5680 5680 5679 5680 5680 5680 5680 5680 5680 5680 5680 5679 5679 5678
5680 5680 5680 5680 5681 5681 5681 5681 5681 5681 5681 5681 5682 5683 5683 5683 5682 5681 5681 5680 5680 5678 5677 5675 5674 5674 5674 5675 5674 5672 5671 5672 5673 5675 5675 5675 5675 5676 5676 5676 5676 5675 5675
5676 5675 5675 5675 5676 5676 5677 5676 5676 5676 5675 5676 5677 5678 5679 5680 5680 5679 5678 5677 5676 5673 5671 5670 5668 5668 5667 5667 5667 5667 5665 5665 5666 5668 5668 5669 5670 5670 5671 5671 5671 5672 5671
5670 5670 5670 5670 5670 5672 5673 5672 5672 5671 5670 5670 5671 5672 5673 5674 5675 5675 5675 5674 5673 5670 5667 5665 5664 5663 5663 5664 5663 5662 5660 5658 5657 5662 5661 5663 5664 5665 5667 5667 5668 5668 5668
5664 5664 5664 5665 5665 5666 5667 5667 5667 5666 5665 5665 5665 5666 5667 5669 5669 5669 5669 5669 5669 5668 5667 5665 5662 5661 5661 5662 5660 5658 5656 5655 5655 5658 5656 5656 5659 5659 5663 5663 5664 5664 5664
5659 5659 5659 5659 5659 5660 5661 5661 5661 5660 5660 5660 5661 5661 5661 5662 5663 5663 5662 5662 5662 5663 5663 5663 5663 5662 5662 5661 5659 5657 5655 5652 5653 5654 5654 5650 5653 5654 5658 5659 5660 5660 5660
5654 5654 5654 5653 5653 5654 5656 5656 5655 5654 5653 5654 5655 5656 5657 5656 5657 5657 5656 5655 5655 5656 5658 5659 5659 5659 5659 5657 5656 5652 5648 5646 5644 5647 5649 5647 5648 5648 5651 5653 5655 5655 5655
5649 5649 5648 5648 5648 5649 5650 5650 5649 5648 5647 5647 5649 5650 5652 5652 5651 5650 5649 5648 5647 5649 5651 5652 5653 5653 5652 5652 5651 5649 5646 5642 5639 5639 5644 5642 5642 5642 5641 5646 5648 5649 5649